Location: Chiroubles
(46.1812°N, 4.6660°E)
Time: 05:52:49
(UTC+00:00)

Transit 4A - Pass Details

Date: 07 December 2020
Orbit: 864 x 980 km, 66.8° (Epoch: 25 January)

Event Time Altitude Azimuth Distance (km) Brightness Sun altitude
Rises 07:18:18 0° 246° (WSW) 3,648 10.7 0.3°
Reaches altitude 10° 07:21:08 10° 257° (WSW) 2,716 10.0 0.7°
Maximum altitude 07:26:47 32° 319° (NW) 1,614 8.7 1.5°
Drops below altitude 10° 07:32:29 10° 21° (NNE) 2,740 10.2 2.3°
Sets 07:35:22 0° 32° (NNE) 3,687 11.0 2.7°
